Location: Ciserano
(45.5833°N, 9.6000°E)
Time: 13:06:41
(UTC+00:00)

SKYMED 2 - Visible Passes

Search period start: 20 April 2021 00:00
Search period end: 30 April 2021 00:00
Orbit: 621 x 623 km, 97.9° (Epoch: 20 April)

Date Brightness Start Highest point End Pass type
(mag) Time Alt. Az. Time Alt. Az. Time Alt. Az.
20 Apr 6.2 03:37:32 10° ESE 03:41:09 26° ENE 03:44:46 10° N visible
21 Apr 7.0 18:53:11 10° NNW 18:55:56 17° WNW 18:58:40 10° W visible
22 Apr 7.4 19:12:20 10° NW 19:13:44 11° WNW 19:15:09 10° WNW visible
23 Apr 7.4 02:58:19 10° ENE 02:59:34 11° ENE 03:00:49 10° NE visible
24 Apr 6.9 03:14:41 10° E 03:17:21 16° ENE 03:20:02 10° NNE visible
25 Apr 6.5 03:31:47 10° ESE 03:35:12 23° ENE 03:38:39 10° NNE visible
26 Apr 6.9 18:46:59 10° NNW 18:50:00 19° WNW 18:53:01 10° WSW visible
27 Apr 7.3 19:05:50 10° NNW 19:07:49 13° WNW 19:09:48 10° W visible
29 Apr 7.0 03:09:07 10° E 03:11:26 14° ENE 03:13:45 10° NNE visible
